Time,TemperatureF,DewpointF,PressureIn,WindDirection,WindDirectionDegrees,WindSpeedMPH,WindSpeedGustMPH,Humidity,HourlyPrecipIn,Conditions,Clouds,dailyrainin,SoftwareType,DateUTC
2013-06-08 00:23:00,61.0,-99.9,29.56,East,89,-999.0,-999.0,-999,-99.99,,,-99.99,,2013-06-08 04:23:00,
2013-06-08 00:33:00,61.0,-99.9,29.56,East,89,-999.0,-999.0,-999,-99.99,,,-99.99,,2013-06-08 04:33:00,
2013-06-08 00:42:00,61.0,-99.9,29.56,East,89,-999.0,-999.0,-999,-99.99,,,-99.99,,2013-06-08 04:42:00,
2013-06-08 00:52:00,60.0,-99.9,29.55,East,89,-999.0,-999.0,-999,-99.99,,,-99.99,,2013-06-08 04:52:00,
2013-06-08 01:22:00,60.0,-99.9,29.55,East,89,-999.0,-999.0,-999,-99.99,,,-99.99,,2013-06-08 05:22:00,
2013-06-08 01:32:00,60.0,-99.9,29.55,East,89,-999.0,-999.0,-999,-99.99,,,-99.99,,2013-06-08 05:32:00,
2013-06-08 01:42:00,60.0,-99.9,29.55,East,89,-999.0,-999.0,-999,-99.99,,,-99.99,,2013-06-08 05:42:00,
2013-06-08 01:52:00,59.0,-99.9,29.55,East,89,-999.0,-999.0,-999,-99.99,,,-99.99,,2013-06-08 05:52:00,
2013-06-08 02:22:00,59.0,-99.9,29.55,East,89,-999.0,-999.0,-999,-99.99,,,-99.99,,2013-06-08 06:22:00,
2013-06-08 02:32:00,59.0,-99.9,29.55,East,89,-999.0,-999.0,-999,-99.99,,,-99.99,,2013-06-08 06:32:00,
2013-06-08 02:42:00,59.0,-99.9,29.55,East,89,-999.0,-999.0,-999,-99.99,,,-99.99,,2013-06-08 06:42:00,
2013-06-08 02:52:00,59.0,-99.9,29.58,East,89,-999.0,-999.0,-999,-99.99,,,-99.99,,2013-06-08 06:52:00,
2013-06-08 03:22:00,59.0,-99.9,29.58,East,89,-999.0,-999.0,-999,-99.99,,,-99.99,,2013-06-08 07:22:00,
2013-06-08 03:32:00,59.0,-99.9,29.58,East,89,-999.0,-999.0,-999,-99.99,,,-99.99,,2013-06-08 07:32:00,
2013-06-08 03:42:00,59.0,-99.9,29.58,East,89,-999.0,-999.0,-999,-99.99,,,-99.99,,2013-06-08 07:42:00,
2013-06-08 04:52:00,58.0,-99.9,29.66,East,89,-999.0,-999.0,-999,-99.99,,,-99.99,,2013-06-08 08:52:00,
2013-06-08 05:22:00,58.0,-99.9,29.66,East,89,-999.0,-999.0,-999,-99.99,,,-99.99,,2013-06-08 09:22:00,
2013-06-08 05:33:00,58.0,-99.9,29.66,East,89,-999.0,-999.0,-999,-99.99,,,-99.99,,2013-06-08 09:33:00,
2013-06-08 05:43:00,58.0,-99.9,29.66,East,89,-999.0,-999.0,-999,-99.99,,,-99.99,,2013-06-08 09:43:00,
2013-06-08 05:52:00,58.0,-99.9,29.71,East,89,-999.0,-999.0,-999,-99.99,,,-99.99,,2013-06-08 09:52:00,
2013-06-08 06:23:00,58.0,-99.9,29.71,East,89,-999.0,-999.0,-999,-99.99,,,-99.99,,2013-06-08 10:23:00,
2013-06-08 06:33:00,58.0,-99.9,29.71,East,89,-999.0,-999.0,-999,-99.99,,,-99.99,,2013-06-08 10:33:00,
2013-06-08 06:43:00,58.0,-99.9,29.71,East,89,-999.0,-999.0,-999,-99.99,,,-99.99,,2013-06-08 10:43:00,
2013-06-08 06:52:00,59.0,-99.9,29.75,East,89,-999.0,-999.0,-999,-99.99,,,-99.99,,2013-06-08 10:52:00,
2013-06-08 07:32:00,59.0,-99.9,29.75,East,89,-999.0,-999.0,-999,-99.99,,,-99.99,,2013-06-08 11:32:00,
2013-06-08 07:42:00,59.0,-99.9,29.75,East,89,-999.0,-999.0,-999,-99.99,,,-99.99,,2013-06-08 11:42:00,
2013-06-08 07:52:00,63.0,-99.9,29.78,East,89,-999.0,-999.0,-999,-99.99,,,-99.99,,2013-06-08 11:52:00,
2013-06-08 08:22:00,63.0,-99.9,29.78,East,89,-999.0,-999.0,-999,-99.99,,,-99.99,,2013-06-08 12:22:00,
2013-06-08 08:33:00,63.0,-99.9,29.78,East,89,-999.0,-999.0,-999,-99.99,,,-99.99,,2013-06-08 12:33:00,
2013-06-08 08:42:00,63.0,-99.9,29.78,East,89,-999.0,-999.0,-999,-99.99,,,-99.99,,2013-06-08 12:42:00,
2013-06-08 08:52:00,67.0,-99.9,29.81,West,265,-999.0,-999.0,-999,-99.99,,,-99.99,,2013-06-08 12:52:00,
2013-06-08 09:22:00,67.0,-99.9,29.81,West,265,-999.0,-999.0,-999,-99.99,,,-99.99,,2013-06-08 13:22:00,
2013-06-08 09:32:00,67.0,-99.9,29.81,West,265,-999.0,-999.0,-999,-99.99,,,-99.99,,2013-06-08 13:32:00,
2013-06-08 09:42:00,67.0,-99.9,29.81,West,265,-999.0,-999.0,-999,-99.99,,,-99.99,,2013-06-08 13:42:00,
2013-06-08 09:52:00,70.0,-99.9,29.82,NW,325,-999.0,-999.0,-999,-99.99,,,-99.99,,2013-06-08 13:52:00,
2013-06-08 10:22:00,70.0,-99.9,29.82,NW,325,-999.0,-999.0,-999,-99.99,,,-99.99,,2013-06-08 14:22:00,
2013-06-08 10:33:00,70.0,-99.9,29.82,NW,325,-999.0,-999.0,-999,-99.99,,,-99.99,,2013-06-08 14:33:00,
2013-06-08 10:42:00,70.0,-99.9,29.82,NW,325,-999.0,-999.0,-999,-99.99,,,-99.99,,2013-06-08 14:42:00,
2013-06-08 10:52:00,71.0,-99.9,29.85,North,-999,-999.0,-999.0,-999,-99.99,,,-99.99,,2013-06-08 14:52:00,
2013-06-08 11:33:00,71.0,-99.9,29.85,North,-999,-999.0,-999.0,-999,-99.99,,,-99.99,,2013-06-08 15:33:00,
2013-06-08 11:43:00,71.0,-99.9,29.85,North,-999,-999.0,-999.0,-999,-99.99,,,-99.99,,2013-06-08 15:43:00,
2013-06-08 11:52:00,73.0,-99.9,29.86,North,-999,-999.0,-999.0,-999,-99.99,,,-99.99,,2013-06-08 15:52:00,
2013-06-08 12:23:00,73.0,-99.9,29.86,North,-999,-999.0,-999.0,-999,-99.99,,,-99.99,,2013-06-08 16:23:00,
2013-06-08 12:33:00,73.0,-99.9,29.86,North,-999,-999.0,-999.0,-999,-99.99,,,-99.99,,2013-06-08 16:33:00,
2013-06-08 12:42:00,73.0,-99.9,29.86,North,-999,-999.0,-999.0,-999,-99.99,,,-99.99,,2013-06-08 16:42:00,
2013-06-08 12:52:00,74.0,-99.9,29.86,NNW,341,-999.0,-999.0,-999,-99.99,,,-99.99,,2013-06-08 16:52:00,
2013-06-08 13:32:00,74.0,-99.9,29.86,NNW,341,-999.0,-999.0,-999,-99.99,,,-99.99,,2013-06-08 17:32:00,
2013-06-08 13:42:00,74.0,-99.9,29.86,NNW,341,-999.0,-999.0,-999,-99.99,,,-99.99,,2013-06-08 17:42:00,
2013-06-08 13:52:00,74.0,-99.9,29.87,NW,316,-999.0,-999.0,-999,-99.99,,,-99.99,,2013-06-08 17:52:00,
2013-06-08 14:22:00,74.0,-99.9,29.87,NW,316,-999.0,-999.0,-999,-99.99,,,-99.99,,2013-06-08 18:22:00,
2013-06-08 14:32:00,74.0,-99.9,29.87,NW,316,-999.0,-999.0,-999,-99.99,,,-99.99,,2013-06-08 18:32:00,
2013-06-08 14:42:00,74.0,-99.9,29.87,NW,316,-999.0,-999.0,-999,-99.99,,,-99.99,,2013-06-08 18:42:00,
2013-06-08 14:52:00,73.0,-99.9,29.87,North,351,-999.0,-999.0,-999,-99.99,,,-99.99,,2013-06-08 18:52:00,
2013-06-08 15:32:00,73.0,-99.9,29.87,North,351,-999.0,-999.0,-999,-99.99,,,-99.99,,2013-06-08 19:32:00,
2013-06-08 15:42:00,73.0,-99.9,29.87,North,351,-999.0,-999.0,-999,-99.99,,,-99.99,,2013-06-08 19:42:00,
2013-06-08 15:52:00,75.0,-99.9,29.87,North,-999,-999.0,-999.0,-999,-99.99,,,-99.99,,2013-06-08 19:52:00,
2013-06-08 16:22:00,75.0,-99.9,29.87,North,-999,-999.0,-999.0,-999,-99.99,,,-99.99,,2013-06-08 20:22:00,
2013-06-08 16:32:00,75.0,-99.9,29.87,North,-999,-999.0,-999.0,-999,-99.99,,,-99.99,,2013-06-08 20:32:00,
2013-06-08 16:42:00,75.0,-99.9,29.87,North,-999,-999.0,-999.0,-999,-99.99,,,-99.99,,2013-06-08 20:42:00,
2013-06-08 16:52:00,76.0,-99.9,29.88,NNW,332,-999.0,5.0,-999,-99.99,,,-99.99,,2013-06-08 20:52:00,
2013-06-08 17:22:00,76.0,-99.9,29.88,NNW,332,-999.0,5.0,-999,-99.99,,,-99.99,,2013-06-08 21:22:00,
2013-06-08 17:33:00,76.0,-99.9,29.88,NNW,332,-999.0,5.0,-999,-99.99,,,-99.99,,2013-06-08 21:33:00,
2013-06-08 17:43:00,76.0,-99.9,29.88,NNW,332,-999.0,5.0,-999,-99.99,,,-99.99,,2013-06-08 21:43:00,
2013-06-08 17:52:00,78.0,-99.9,29.89,North,-999,-999.0,-999.0,-999,-99.99,,,-99.99,,2013-06-08 21:52:00,
2013-06-08 18:23:00,78.0,-99.9,29.89,North,-999,-999.0,-999.0,-999,-99.99,,,-99.99,,2013-06-08 22:23:00,
2013-06-08 18:34:00,78.0,-99.9,29.89,North,-999,-999.0,-999.0,-999,-99.99,,,-99.99,,2013-06-08 22:34:00,
2013-06-08 18:43:00,78.0,-99.9,29.89,North,-999,-999.0,-999.0,-999,-99.99,,,-99.99,,2013-06-08 22:43:00,
2013-06-08 18:52:00,77.0,-99.9,29.91,NNW,332,-999.0,-999.0,-999,-99.99,,,-99.99,,2013-06-08 22:52:00,
2013-06-08 19:22:00,77.0,-99.9,29.91,NNW,332,-999.0,-999.0,-999,-99.99,,,-99.99,,2013-06-08 23:22:00,
2013-06-08 19:32:00,77.0,-99.9,29.91,NNW,332,-999.0,-999.0,-999,-99.99,,,-99.99,,2013-06-08 23:32:00,
2013-06-08 19:42:00,77.0,-99.9,29.91,NNW,332,-999.0,-999.0,-999,-99.99,,,-99.99,,2013-06-08 23:42:00,
2013-06-08 19:52:00,73.0,-99.9,29.92,NNW,332,-999.0,-999.0,-999,-99.99,,,-99.99,,2013-06-08 23:52:00,
2013-06-08 20:22:00,73.0,-99.9,29.92,NNW,332,-999.0,-999.0,-999,-99.99,,,-99.99,,2013-06-09 00:22:00,
2013-06-08 20:32:00,73.0,-99.9,29.92,NNW,332,-999.0,-999.0,-999,-99.99,,,-99.99,,2013-06-09 00:32:00,
2013-06-08 20:42:00,73.0,-99.9,29.92,NNW,332,-999.0,-999.0,-999,-99.99,,,-99.99,,2013-06-09 00:42:00,
2013-06-08 20:52:00,67.0,-99.9,29.94,NNW,332,-999.0,-999.0,-999,-99.99,,,-99.99,,2013-06-09 00:52:00,
2013-06-08 21:22:00,67.0,-99.9,29.94,NNW,332,-999.0,-999.0,-999,-99.99,,,-99.99,,2013-06-09 01:22:00,
2013-06-08 21:32:00,67.0,-99.9,29.94,NNW,332,-999.0,-999.0,-999,-99.99,,,-99.99,,2013-06-09 01:32:00,
2013-06-08 21:42:00,67.0,-99.9,29.94,NNW,332,-999.0,-999.0,-999,-99.99,,,-99.99,,2013-06-09 01:42:00,
2013-06-08 21:52:00,65.0,-99.9,29.96,NNW,332,-999.0,-999.0,-999,-99.99,,,-99.99,,2013-06-09 01:52:00,
2013-06-08 22:22:00,65.0,-99.9,29.96,NNW,332,-999.0,-999.0,-999,-99.99,,,-99.99,,2013-06-09 02:22:00,
2013-06-08 22:32:00,65.0,-99.9,29.96,NNW,332,-999.0,-999.0,-999,-99.99,,,-99.99,,2013-06-09 02:32:00,
2013-06-08 22:42:00,65.0,-99.9,29.96,NNW,332,-999.0,-999.0,-999,-99.99,,,-99.99,,2013-06-09 02:42:00,
2013-06-08 22:52:00,64.0,-99.9,29.99,NNW,332,-999.0,-999.0,-999,-99.99,,,-99.99,,2013-06-09 02:52:00,
2013-06-08 23:22:00,64.0,-99.9,29.99,NNW,332,-999.0,-999.0,-999,-99.99,,,-99.99,,2013-06-09 03:22:00,
2013-06-08 23:33:00,64.0,-99.9,29.99,NNW,332,-999.0,-999.0,-999,-99.99,,,-99.99,,2013-06-09 03:33:00,
2013-06-08 23:43:00,64.0,-99.9,29.99,NNW,332,-999.0,-999.0,-999,-99.99,,,-99.99,,2013-06-09 03:43:00,
2013-06-08 23:52:00,62.0,-99.9,30.01,NNW,332,-999.0,-999.0,-999,-99.99,,,-99.99,,2013-06-09 03:52:00,